Weather History for KASH - January, 2013

Change the Weather History Date:

Saturday, January 5, 2013

  Actual Average Record
Temperature  
Mean Temperature 26 °F -  
Max Temperature 38 °F 34 °F 66 °F (1950)
Min Temperature 15 °F 12 °F -15 °F (1969)
Degree Days  
Heating Degree Days 38    
Moisture  
Dew Point 17 °F    
Average Humidity 59    
Maximum Humidity 81    
Minimum Humidity 38    
Precipitation  
Precipitation 0.00 in - - ()
Sea Level Pressure  
Sea Level Pressure 30.11 in    
Wind  
Wind Speed 17 mph (NW)    
Max Wind Speed 20 mph    
Max Gust Speed 26 mph    
Visibility 10 miles    
Events      
Averages and records for this station are not official NWS values.
T = Trace of Precipitation, MM = Missing Value Source: NWS Daily Summary

Daily Weather History Graph

Daily Weather History Graph

Search for Another Location

Airport or City:

Trip Planner

Search our weather history database for the weather conditions in past years. The results will help you decide how hot, cold, wet, or windy it might be!

Date:

Astronomy

Jan. 05, 2013 Rise Set
Actual Time 7:16 AM EST 4:26 PM EST
Civil Twilight 6:44 AM EST 4:58 PM EST
Nautical Twilight 6:09 AM EST 5:34 PM EST
Astronomical Twilight 5:35 AM EST 6:08 PM EST
Moon 12:14 AM EST (1/5) 11:19 AM EST (1/5)
Length of Visible Light 10h 13m
Length of Day
9h 10m
Last Quarter, 44% of the Moon is Illuminated
Jan 5
Last Quarter
Jan 11
New
Jan 18
First Quarter
Jan 26
Full
Feb 3
Last Quarter

Hourly Weather History & Observations

Time (EST) Temp. Windchill Dew Point Humidity Pressure Visibility Wind Dir Wind Speed Gust Speed Precip Events Conditions
12:51 AM 34.9 °F - 19.0 °F 52% 29.84 in 10.0 mi North - - N/A   Mostly Cloudy
1:51 AM 34.0 °F - 19.0 °F 54% 29.86 in 10.0 mi North - - N/A   Mostly Cloudy
2:51 AM 34.9 °F - 20.1 °F 55% 29.88 in 10.0 mi North - - N/A   Mostly Cloudy
3:51 AM 34.0 °F - 21.0 °F 59% 29.89 in 10.0 mi North - - N/A   Mostly Cloudy
5:51 AM 32.9 °F - 20.1 °F 59% 29.96 in 10.0 mi North - - N/A   Clear
6:51 AM 32.9 °F - 20.1 °F 59% 30.00 in 10.0 mi North - - N/A   Clear
7:51 AM 31.1 °F - 20.1 °F 64% 30.03 in 10.0 mi North - - N/A   Clear
8:51 AM 34.9 °F - 20.1 °F 55% 30.07 in 10.0 mi North - - N/A   Scattered Clouds
9:51 AM 36.9 °F - 20.1 °F 51% 30.13 in 10.0 mi North - - N/A   Mostly Cloudy
10:51 AM 36.9 °F - 19.0 °F 49% 30.13 in 10.0 mi North - - N/A   Partly Cloudy
11:51 AM 37.9 °F 29.2 °F 18.1 °F 45% 30.15 in 10.0 mi NW 15.0 mph 24.2 mph N/A   Scattered Clouds
12:51 PM 37.9 °F 27.9 °F 18.1 °F 45% 30.15 in 10.0 mi NW 19.6 mph 26.5 mph N/A   Partly Cloudy
1:51 PM 38.8 °F - 15.1 °F 38% 30.17 in 10.0 mi North - - N/A   Clear
2:51 PM 36.9 °F - 15.1 °F 41% 30.17 in 10.0 mi North - - N/A   Clear
3:51 PM 36.0 °F - 14.0 °F 41% 30.18 in 10.0 mi North - - N/A   Clear
4:51 PM 30.0 °F - 17.1 °F 59% 30.23 in 10.0 mi North - - N/A   Clear
5:51 PM 26.1 °F - 16.2 °F 66% 30.24 in 10.0 mi North - - N/A   Clear
6:51 PM 22.1 °F - 14.0 °F 71% 30.27 in 10.0 mi North - - N/A   Clear
7:51 PM 18.1 °F - 11.1 °F 74% 30.27 in 10.0 mi North - - N/A   Clear
8:51 PM 18.1 °F - 13.1 °F 81% 30.26 in 10.0 mi North - - N/A   Clear
9:51 PM 18.1 °F - 12.0 °F 77% 30.25 in 10.0 mi North - - N/A   Clear
10:51 PM 15.1 °F - 10.0 °F 80% 30.27 in 10.0 mi North - - N/A   Clear
11:51 PM 17.1 °F - 12.0 °F 81% 30.22 in 10.0 mi North - - N/A   Clear